Location: Presov
(49.0000°N, 21.2500°E)
Time: 22:54:24
(UTC+02:00)

Transit 2A Rocket - Pass Details

Date: 19 April 2021
Orbit: 594 x 908 km, 66.7° (Epoch: 05 May)

Event Time Altitude Azimuth Distance (km) Brightness Sun altitude
Rises 02:16:35 0° 307° (NW) 2,901 8.1 -25.7°
Enters shadow 02:18:04 - 298° (WNW) 2,456 7.6 -25.6°
Reaches altitude 10° 02:19:55 10° 280° (W) 2,035 - -25.5°
Maximum altitude 02:22:02 13° 252° (WSW) 1,862 - -25.3°
Drops below altitude 10° 02:24:13 10° 225° (SW) 2,103 - -25.1°
Sets 02:27:48 0° 198° (SSW) 3,086 - -24.8°
